TimeMDT,TemperatureF,Dew PointF,Humidity,Sea Level PressureIn,VisibilityMPH,Wind Direction,Wind SpeedMPH,Gust SpeedMPH,PrecipitationIn,Events,Conditions,WindDirDegrees,DateUTC
12:53 AM,27.0,14.0,58,30.13,10.0,ENE,5.8,-,N/A,,Overcast,60,2013-04-10 06:53:00
1:53 AM,26.1,12.0,55,30.14,10.0,ENE,10.4,-,N/A,,Scattered Clouds,70,2013-04-10 07:53:00
2:53 AM,25.0,12.0,58,30.14,10.0,ENE,9.2,-,N/A,,Clear,60,2013-04-10 08:53:00
3:53 AM,23.0,12.0,63,30.14,10.0,West,8.1,-,N/A,,Clear,260,2013-04-10 09:53:00
4:53 AM,24.1,10.9,57,30.15,10.0,Calm,Calm,-,N/A,,Mostly Cloudy,0,2013-04-10 10:53:00
5:53 AM,26.1,10.0,51,30.16,10.0,Calm,Calm,-,N/A,,Overcast,0,2013-04-10 11:53:00
6:53 AM,26.1,10.0,51,30.17,10.0,NE,12.7,-,N/A,,Clear,50,2013-04-10 12:53:00
7:53 AM,28.0,10.0,47,30.18,10.0,ENE,10.4,-,N/A,,Clear,70,2013-04-10 13:53:00
8:53 AM,32.0,10.0,40,30.19,10.0,NE,15.0,-,N/A,,Clear,50,2013-04-10 14:53:00
9:53 AM,34.0,12.0,40,30.19,10.0,ENE,11.5,-,N/A,,Clear,70,2013-04-10 15:53:00
10:53 AM,35.6,10.4,35,30.13,10.0,East,10.4,-,N/A,,Clear,90,2013-04-10 16:53:00
11:53 AM,37.0,12.9,37,30.17,10.0,East,5.8,-,N/A,,Clear,90,2013-04-10 17:53:00
12:53 PM,39.9,14.0,35,30.14,10.0,Variable,3.5,-,N/A,,Clear,0,2013-04-10 18:53:00
1:53 PM,42.1,14.0,32,30.10,10.0,Calm,Calm,-,N/A,,Clear,0,2013-04-10 19:53:00
2:53 PM,45.0,16.0,31,30.08,10.0,Variable,4.6,-,N/A,,Clear,0,2013-04-10 20:53:00
3:53 PM,46.0,16.0,30,30.05,10.0,SW,9.2,-,N/A,,Partly Cloudy,230,2013-04-10 21:53:00
4:53 PM,48.0,16.0,28,30.02,10.0,Variable,5.8,-,N/A,,Clear,0,2013-04-10 22:53:00
5:53 PM,46.9,16.0,29,30.00,10.0,Calm,Calm,-,N/A,,Clear,0,2013-04-10 23:53:00
6:53 PM,46.9,16.0,29,30.00,10.0,Calm,Calm,-,N/A,,Clear,0,2013-04-11 00:53:00
7:53 PM,45.0,16.0,31,30.00,10.0,SE,4.6,-,N/A,,Clear,130,2013-04-11 01:53:00
8:53 PM,39.9,17.1,40,30.01,10.0,ESE,4.6,-,N/A,,Partly Cloudy,120,2013-04-11 02:53:00
9:53 PM,39.9,18.0,41,30.02,10.0,East,3.5,-,N/A,,Clear,80,2013-04-11 03:53:00
10:53 PM,37.9,18.0,45,30.02,10.0,Calm,Calm,-,N/A,,Clear,0,2013-04-11 04:53:00
11:53 PM,34.0,19.0,54,30.02,10.0,Calm,Calm,-,N/A,,Clear,0,2013-04-11 05:53:00